User: anonymous   Login
Location: Unspecified
(0.0000°N, 0.0000°E)
Time: 22:19:55
(UTC+00:00)
Language:

Orbcomm G2 (FM04) - Orbit

View from above orbital plane
View from above orbital plane
View from above satellite
View from above satellite

Ground track
Ground track

The orbit data is extracted from the following two-line orbital elements,

1 25159U 98007C   23083.21300086  .00008585  00000-0  32643-2 0  9998
2 25159 107.9845 267.0832 0045208 230.2910 129.4238 14.31018769307472
Epoch (UTC): 24 March 2023 05:06:43
Eccentricity: 0.0045208
inclination: 107.9845°
perigee height: 756 km
apogee height: 821 km
right ascension of ascending node: 267.0832°
argument of perigee: 230.2910°
revolutions per day: 14.31018769
mean anomaly at epoch: 129.4238°
orbit number at epoch: 30747

The dashed part of the orbit path shows where the satellite is in the earth's shadow,  

DLR